This is the latest recevied weather packets stored in our database for station/object W1SGB. If no packets are shown the sender has not sent any weather packets the latest 10 day(s).
| Time | Temp. | Humidity | Pressure | Rain* | Wind** | Luminosity | Snow |
|---|---|---|---|---|---|---|---|
| 1777577423 | 11.67° C | 87% | 1005.9 hPa | 0 mm | - | 68 W/m² | - |
| 1777568426 | 10° C | 95% | 1006.9 hPa | 0 mm | - | 139 W/m² | - |
| 1777565426 | 9.44° C | 96% | 1007.1 hPa | 0 mm | - | 124 W/m² | - |
| 1777562448 | 8.89° C | 96% | 1007.2 hPa | 0 mm | - | 83 W/m² | - |
| 1777561228 | 8.89° C | 96% | 1007 hPa | 0 mm | - | 115 W/m² | - |
| 1777553450 | 7.78° C | 96% | 1008 hPa | 1.52 mm | - | 51 W/m² | - |
| 1777551630 | 7.78° C | 96% | 1008.1 hPa | 0.25 mm | - | 32 W/m² | - |
| 1777550416 | 7.78° C | 97% | 1008.1 hPa | 0.25 mm | - | 30 W/m² | - |
| 1777548631 | 7.78° C | 97% | 1007.9 hPa | 0.25 mm | - | 26 W/m² | - |
| 1777542019 | 7.22° C | 96% | 1007.8 hPa | 0.51 mm | - | 0 W/m² | - |
| 1777540839 | 7.22° C | 96% | 1008.1 hPa | 0.51 mm | - | 0 W/m² | - |
| 1777536640 | 7.22° C | 96% | 1008.1 hPa | 1.52 mm | - | 0 W/m² | - |
| 1777530041 | 7.22° C | 94% | 1009.9 hPa | 0 mm | - | 0 W/m² | - |
| 1777528822 | 7.22° C | 94% | 1010.2 hPa | 0 mm | - | 0 W/m² | - |
| 1777516217 | 7.78° C | 88% | 1011.9 hPa | 0 mm | - | 0 W/m² | - |
| 1777515640 | 7.78° C | 87% | 1011.9 hPa | 0 mm | - | 0 W/m² | - |
| 1777514420 | 7.78° C | 86% | 1012.1 hPa | 0 mm | - | 0 W/m² | - |
| 1777507820 | 10° C | 79% | 1012.2 hPa | 0 mm | - | 0 W/m² | - |
| 1777503037 | 12.78° C | 71% | 1011.9 hPa | 0 mm | - | 36 W/m² | - |
| 1777502418 | 12.78° C | 70% | 1012 hPa | 0 mm | - | 41 W/m² | - |
| 1777501220 | 13.89° C | 67% | 1011.8 hPa | 0 mm | - | 62 W/m² | - |
| 1777499419 | 15° C | 63% | 1012.2 hPa | 0 mm | - | 128 W/m² | - |
| 1777491017 | 16.11° C | 56% | 1013.5 hPa | 0 mm | - | 272 W/m² | - |
| 1777488639 | 16.11° C | 54% | 1014.1 hPa | 0 mm | - | 304 W/m² | - |
| 1777488039 | 16.11° C | 54% | 1014.1 hPa | 0 mm | - | 319 W/m² | - |
* Rain latest hour (hover to see other rain measurements)
** Current wind speed in m/s (hover to see current wind gust speed)